Regional Weather Roundup
Issued by NWS

Home | Current Version | Previous Version | Graphics & Text | Print | Product List | Glossary On
Versions: 1 2 3 4 5 6 7 8 9 10 11 12 13 14 15 16 17 18 19 20 21 22 23 24 25 26 27 28 29 30 31 32 33 34 35 36 37 38 39 40 41 42 43 44 45 46 47 48 49 50
000
ASUS43 KDMX 230506
RWRIA

WEATHER ROUNDUP FOR IOWA
NATIONAL WEATHER SERVICE DES MOINES IA
1200 AM CDT WED AUG 23 2017

NOTE: "FAIR" INDICATES FEW OR NO CLOUDS BELOW 12,000 FEET WITH NO
SIGNIFICANT WEATHER AND/OR OBSTRUCTIONS TO VISIBILITY.

* - THESE STATIONS ARE NOT NWS STATIONS...THUS NOT UNDER NWS
QUALITY CONTROL.  THEY ALSO DO NOT REPORT WEATHER SUCH
AS PRECIPITATION OR FOG.

IAZ001>003-012>014-020>022-031>034-043>046-230600-
   NORTHWEST IOWA

CITY           SKY/WX    TMP DP  RH WIND       PRES   REMARKS
CARROLL *      CLEAR     57  55  94 W7        30.15R
CHEROKEE *     CLEAR     54  54 100 CALM      30.16R
DENISON *      CLEAR     54  54 100 CALM      30.18R
LE MARS *      CLEAR    106 N/A N/A CALM      30.16R
ORANGE CITY *  CLEAR     57  55  94 CALM      30.16S
SHELDON *      CLEAR     50  50 100 CALM      30.14S
SIOUX CITY     CLEAR     56  55  97 CALM      30.16S
SPENCER        CLEAR     52  50  93 CALM      30.15R
STORM LAKE *   CLEAR     57  52  82 W7        30.16R
$$

IAZ055>058-069>071-079>083-090>094-230600-
   SOUTHWEST IOWA

CITY           SKY/WX    TMP DP  RH WIND       PRES   REMARKS
ATLANTIC *     CLEAR     55  55 100 CALM      30.16R
AUDUBON *      CLEAR     54  52  94 CALM      30.17R
CLARINDA *     CLEAR     54  54 100 CALM      30.19R FOG
COUNCIL BLFS * CLEAR     63  54  72 CALM      30.17R
CRESTON *      CLEAR     59  54  82 W5        30.17R
HARLAN  *      PTCLDY    54  54 100 CALM      30.20R
LAMONI         CLEAR     58  52  80 NW7       30.15R
RED OAK *      CLEAR     55  55 100 CALM      30.17R
SHENANDOAH *   CLEAR     57  55  94 CALM      30.17S
$$

IAZ047>049-059>061-072>074-084-230600-
   CENTRAL IOWA

CITY           SKY/WX    TMP DP  RH WIND       PRES   REMARKS
AMES           CLEAR     56  54  93 CALM      30.13R
ANKENY *       CLEAR     57  54  88 CALM      30.14S
BOONE *        CLEAR     61  52  72 NW6       30.13R
CHARITON *     CLEAR     57  52  82 W7        30.13S
DES MOINES     CLEAR     61  55  81 W3        30.12S
GRINNELL*      CLEAR     56  53  87 CALM      30.13S
KNOXVILLE *    CLEAR     57  52  82 W6        30.12R
MARSHALLTOWN   CLEAR     54  52  93 W3        30.11R
NEWTON *       CLEAR     55  54  94 W3        30.13R
PELLA *        CLEAR     56  53  88 CALM      30.13S
PERRY *          N/A     55  54  95 W6        30.14S
$$

IAZ004>006-015-016-023>025-035-036-230600-
   NORTH CENTRAL IOWA

CITY           SKY/WX    TMP DP  RH WIND       PRES   REMARKS
ALGONA *       CLEAR     57  54  88 NW7       30.14R
CLARION *      CLEAR     54  54 100 NW3       30.13R
ESTHERVILLE    CLEAR     53  52  96 W6        30.14R
FORT DODGE *   CLEAR     54  50  87 CALM      30.15R
MASON CITY     CLEAR     52  48  86 W8        30.12S
FOREST CITY *    N/A     52  50  93 CALM      30.12S
WEBSTER CITY * CLEAR     54  52  94 W7        30.12R
IOWA FALLS *     N/A     55  52  91 W3        30.13R
$$

IAZ007>011-017>019-026>030-037>042-050>054-066-230600-
   NORTHEAST IOWA

CITY           SKY/WX    TMP DP  RH WIND       PRES   REMARKS
CEDAR RAPIDS   CLEAR     51  50  96 W7        30.09R
CHARLES CITY * CLEAR     54  54 100 W5        30.10S
CLINTON *      CLEAR     55  53  93 NW7       30.07S
DECORAH *      CLEAR     57  52  82 W5        30.07R
DUBUQUE        CLEAR     56  51  84 W7        30.07R
MONTICELLO *   CLEAR     55  52  88 CALM      30.07S
OELWEIN *      CLEAR     54  52  94 W7        30.10R
WATERLOO       CLEAR     56  52  86 W5        30.09R
$$

IAZ064-065-067-068-078-230600-
   EAST CENTRAL IOWA

CITY           SKY/WX    TMP DP  RH WIND       PRES   REMARKS
DAVENPORT      CLEAR     56  53  90 W5        30.09S
IOWA CITY      CLEAR     60  54  80 CALM      30.10S
MT. PLEASANT * CLEAR     60  52  74 NW5       30.10S
MUSCATINE *    CLEAR     59  54  82 W7        30.09S
QUAD CITIES    CLEAR     59  53  80 SW5       30.07R
$$

IAZ062-063-075>077-085>089-095>099-230600-
   SOUTHEAST IOWA

CITY           SKY/WX    TMP DP  RH WIND       PRES   REMARKS
BURLINGTON     CLEAR     60  55  83 NW6       30.09R
FAIRFIELD *    CLEAR     59  52  77 NW7       30.11R
FORT MADISON * CLEAR     57  54  88 NW3       30.10S
KEOKUK *       CLEAR     61  54  77 CALM      30.10R
OSKALOOSA *      N/A     55  52  91 NW6       30.12S
CENTERVILLE *    N/A     54  54 100 CALM      30.15R
OTTUMWA        CLEAR     55  52  89 W3        30.12R
WASHINGTON *   CLEAR     55  54  94 W6        30.11S
$$

ABBREVIATIONS USED IN REMARKS
   TC - TEMPERATURES IN CELSIUS
  WCI - WIND CHILL INDEX
   HX - HEAT INDEX
  VSB - VISIBILITY
$$





USA.gov is the U.S. government's official web portal to all federal, state and local government web resources and services.